sat.trackr.live / text

‹ back to catalog

STARLINK-35496

NORAD 66114 · 2025-237A

PAYLOAD ACTIVE UNKNOWN

§ Identity

Operator
Country
US
Launch date
2025-10-22
Launch site
AFWTR
Launch vehicle
Mass (kg)
RCS (m²)

Purposes: comms

External: N2YO · Heavens-Above · Gunter

§ Orbital elements

Epoch: 2026-09-20T13:34:59.700864Z

Period
93.85 min
Inclination
53.1599°
Eccentricity
0.0000727
Mean motion
15.34401492 rev/d
Perigee alt
462.2 km
Apogee alt
463.2 km
Semi-major
6,840.8 km
B*
2.6986e-4
RAAN
211.1353°
Arg perigee
109.0580°
Mean anomaly
251.0501°
Rev number
5,249

§ Raw data

STARLINK-354961 66114U 25237A   26263.56596876  .00008753  00000+0  26986-3 0  99942 66114  53.1599 211.1353 0000727 109.0580 251.0501 15.34401492 52494

JSON: /api/v1/satellites/66114 · /tle

For live sub-satellite position, see the globe view (requires WebGL).

§ Visibility from observer

Set your observer location to see the next 7 days of passes ≥ 10°. The values pass through the URL so the page stays shareable.

No JS? Fill the form by hand. The geolocation button needs JavaScript.